Regional Weather Roundup
Issued by NWS Sioux Falls, SD

Home | Current Version | Previous Version | Graphics & Text | Print | Product List | Glossary On
Versions: 1 2 3 4 5 6 7 8 9 10 11 12 13 14 15 16 17 18 19 20 21 22 23 24 25 26 27 28 29 30 31 32 33 34 35 36 37 38 39 40 41 42 43 44 45 46 47 48 49 50
000
ASUS43 KFSD 051410
RWRFSD

WEATHER ROUNDUP FOR SE SOUTH DAKOTA/SW MINNESOTA/NW IOWA
NATIONAL WEATHER SERVICE SIOUX FALLS SD
900 AM CDT TUE MAY 05 2015

NOTE: "FAIR" INDICATES FEW OR NO CLOUDS BELOW 12,000 FEET WITH NO
SIGNIFICANT WEATHER AND OR OBSTRUCTIONS TO VISIBILITY.


SDZ038>040-050-052>070-051500-
SOUTHEAST SOUTH DAKOTA

CITY           SKY/WX    TMP DP  RH WIND       PRES   REMARKS
BROOKINGS      SUNNY     61  30  31 E17       30.12F
CHAMBERLAIN    CLOUDY    54  39  57 E7        30.08S
HURON          SUNNY     61  34  36 E12       30.10F
MADISON        FAIR      59  28  31 E15G21    30.12S
MITCHELL       MOSUNNY   59  36  42 E12       30.10S
SIOUX FALLS    PTSUNNY   60  36  40 E13       30.10S
WINNER         PTSUNNY   59  45  59 SE14      30.06S
YANKTON        CLOUDY    59  39  47 E8        30.07S
$$

MNZ071-072-080-081-089-090-097-098-051500-
SOUTHWEST MINNESOTA

CITY           SKY/WX    TMP DP  RH WIND       PRES   REMARKS
FAIRMONT       CLOUDY    55  45  67 E14       30.13S
JACKSON        CLOUDY    55  37  50 E9        30.14R
LUVERNE        MOSUNNY   63  32  31 E14       30.11S
MARSHALL       SUNNY     57  28  33 E8        30.15S
MONTEVIDEO     SUNNY     63  30  29 SE9       30.17S
REDWOOD FALLS  MOSUNNY   61  32  33 E9        30.15F
TRACY          MOSUNNY   59  32  36 E9        30.15S
WORTHINGTON    CLOUDY    57  34  41 E13       30.13S
$$

IAZ001>003-012>014-020>022-031-032-NEZ013-014-SDZ071-051500-
NORTHWEST IOWA

CITY           SKY/WX    TMP DP  RH WIND       PRES   REMARKS
CHEROKEE       CLOUDY    54  48  81 E9        30.11S
DENISON        CLOUDY    57  57 100 E6        30.07S FOG
ESTHERVILLE    CLOUDY    54  50  86 E12       30.13R
LE MARS        CLOUDY    57  48  72 E7        30.10S
ORANGE CITY    PTSUNNY   57  46  67 E7        30.10R
SHELDON        PTSUNNY   59  46  63 E16       30.09S
SIOUX CITY     CLOUDY    56  52  86 E9        30.09R
SPENCER        CLOUDY    55  50  83 E13       30.11S
STORM LAKE     CLOUDY    54  52  94 E7        30.12R
$$

ABBREVIATIONS USED IN REMARKS
   TC - TEMPERATURE IN CELSIUS
  WCI - WIND CHILL INDEX
   HX - HEAT INDEX
  VSB - VISIBILITY




USA.gov is the U.S. government's official web portal to all federal, state and local government web resources and services.